Tracking 18851 objects as of 25-Nov-2017
HD Live streaming from Space Station
objects crossing your sky now

BREEZE-M DEB (TANK)

Track BREEZE-M DEB (TANK) now!
10-day predictions


NORAD ID: 37828
Int'l Code: 2011-054C
Perigee: 357.2 km
Apogee: 17,219.5 km
Inclination: 49.4 °
Period: 309.6 minutes
Semi major axis: 15159 km
RCS: 6.7148 m2 (large)
Launch date: September 29, 2011
Source: Commonwealth of Independent States (former USSR) (CIS)
Launch site: TYURATAM MISSILE AND SPACE COMPLEX (TTMTR)

Note: This is SATELLITE DEBRIS
aabbcc
Your satellite tracking list
Your tracking list is empty




NASA's NSSDC Master Catalog

Two Line Element Set (TLE):
1 37828U 11054C   17328.15713861  .00000386  00000-0  18956-3 0  9991
2 37828  49.4312 268.6120 5561703 169.1798 211.2259  4.65139852101250
Source of the keplerian elements: AFSPC